Regional Weather Roundup
Issued by NWS

Home | Current Version | Previous Version | Text Only | Print | Product List | Glossary Off
Versions: 1 2 3 4 5 6 7 8 9 10 11 12 13 14 15 16 17 18 19 20 21 22 23 24 25 26 27 28 29 30 31 32 33 34 35 36 37 38 39 40 41 42 43 44 45 46 47 48 49 50

000
ASUS43 KMKX 292021
RWRWI

WISCONSIN REGIONAL WEATHER ROUNDUP
NATIONAL WEATHER SERVICE MILWAUKEE/SULLIVAN WI
300 PM CDT SAT AUG 29 2015

NOTE: "FAIR" INDICATES FEW OR NO CLOUDS BELOW 12,000 FEET WITH NO
SIGNIFICANT WEATHER AND/OR OBSTRUCTIONS TO VISIBILITY.

WIZ001-002-006>008-014>016-023>028-292100-
NORTHWEST WISCONSIN

CITY           SKY/WX    TMP DP  RH WIND       PRES   REMARKS
SUPERIOR ARPT  CLOUDY    74  63  67 CALM      30.00F
ASHLAND        PTSUNNY   79  65  62 VRB6      30.02F HX  81
HAYWARD        CLOUDY    73  61  65 S5        30.05S
SIREN          SUNNY     75  62  63 SW5       30.04F
CUMBERLAND     SUNNY     72  59  64 SW6       30.06S
RICE LAKE      MOSUNNY   73  58  59 SW3       30.07S
CHETEK         SUNNY    N/A N/A N/A CALM      30.05F
LADYSMITH      SUNNY     75  62  65 SW7       30.07S
EAU CLAIRE     CLOUDY    68  59  73 VRB3      30.05F
MENOMONIE      SUNNY     70  61  74 SE3       30.06S
NEW RICHMOND   SUNNY     72  60  66 CALM      30.06F
OSCEOLA        SUNNY     73  61  67 S7        30.07F
$$

WIZ003>005-009-010-017-018-292100-
NORTH CENTRAL WISCONSIN

CITY           SKY/WX    TMP DP  RH WIND       PRES   REMARKS
MANITOWISH WTR CLOUDY    75  60  58 CALM      30.04F
ARBOR VITAE    MOSUNNY   77  63  61 S6        30.05F
WOODRUFF       MOSUNNY   77  63  61 S6        30.05F
RHINELANDER    MOSUNNY   73  57  57 SW5       30.07F
EAGLE RIVER    SUNNY     75  56  51 CALM      30.05F
LAND O LAKES   MOSUNNY   76  57  51 CALM      30.05F
PHILLIPS       SUNNY     74  61  63 CALM      30.04F
TOMAHAWK       SUNNY     71  59  66 CALM      30.06F
MEDFORD        PTSUNNY   67  60  79 CALM      30.07F
MERRILL        MOSUNNY   69  60  74 CALM      30.07S
$$

WIZ029-030-035-036-043>047-292100-
CENTRAL WISCONSIN

CITY           SKY/WX    TMP DP  RH WIND       PRES   REMARKS
WAUSAU         CLOUDY    66  59  78 W3        30.05F
MOSINEE        CLOUDY    64  61  88 E3        30.08F
MARSHFIELD     CLOUDY    66  58  75 E3        30.07F
STEVENS POINT  CLOUDY    62  58  86 CALM      30.07S
WAUPACA        CLOUDY    69  63  81 CALM      30.06S
WAUTOMA        CLOUDY    68  63  84 NE5       30.06S
WISC RAPIDS    NOT AVBL
CAMP DOUGLAS   CLOUDY    68  68 100 NE3       30.05S
$$

WIZ011>013-019>022-031-037>040-048>050-292100-
NORTHEAST WISCONSIN

CITY           SKY/WX    TMP DP  RH WIND       PRES   REMARKS
ANTIGO         CLOUDY    67  58  73 SW3       30.07F
SHAWANO        CLOUDY    71  62  72 CALM      30.06F
OCONTO         CLOUDY    67  63  88 N3        30.05F
STURGEON BAY   CLOUDY    68  61  77 CALM      30.07F
GREEN BAY      CLOUDY    70  62  76 CALM      30.04F
MANITOWOC      MOSUNNY   67  61  81 MISG      30.05F
APPLETON       CLOUDY    68  59  73 VRB3      30.03F
CLINTONVILLE   CLOUDY    68  59  73 CALM      30.05F
OSHKOSH        MOSUNNY   70  61  73 VRB3      30.04F
$$

WIZ032>034-041-042-053>061-292100-
SOUTHWEST WISCONSIN

CITY           SKY/WX    TMP DP  RH WIND       PRES   REMARKS
LA CROSSE      CLOUDY    72  62  71 NW6       30.04S
SPARTA         CLOUDY    70  58  65 NE3       30.06S
VIROQUA        CLOUDY    70  62  74 NE5       30.05F
BOSCOBEL       CLOUDY    71  63  75 VRB3      30.04S
PRAIRIE DU CHI CLOUDY    70  61  73 CALM      30.02F
PLATTEVILLE    CLOUDY    71  66  86 N8        30.03S
$$

WIZ056-057-062-063-064-067-068-292100-
SOUTH CENTRAL WISCONSIN

CITY           SKY/WX    TMP DP  RH WIND       PRES   REMARKS
REEDSBURG      CLOUDY    68  61  79 NE5       30.04S
BARABOO/DELLS  CLOUDY    68  60  76 N5        30.05S
LONE ROCK      CLOUDY    70  62  76 VRB3      30.04S
MINERAL POINT  CLOUDY    70  63  78 NE6       30.04S
MADISON        CLOUDY    67  63  87 E8        30.03S
MIDDLETON      CLOUDY    70  65  86 CALM      30.04S
WATERTOWN      CLOUDY    65  65 100 NE3       30.03F
MONROE         CLOUDY    68  63  83 N5        30.03S
JANESVILLE     NOT AVBL
$$

WIZ051-052-058>065-066-070>072-292100-
SOUTHEAST WISCONSIN

CITY           SKY/WX    TMP DP  RH WIND       PRES   REMARKS
MILWAUKEE      FOG       61  59  93 NE3       30.04S VSB 3/4
WAUKESHA       CLOUDY    63  63 100 E3        30.05F FOG
MILWAUKEE/TIMM DRIZZLE   63  61  94 CALM      30.05F
RACINE         CLOUDY    64  61  90 NE3       30.05S
BURLINGTON     CLOUDY    65  63  93 N5        30.03S FOG
KENOSHA        CLOUDY    67  64  90 E3        30.03S FOG
FOND DU LAC    CLOUDY    70  62  76 NE5       30.04F
SHEBOYGAN      CLOUDY    65  61  87 S5        30.05F
WEST BEND      CLOUDY    63  61  94 CALM      30.05S FOG
JUNEAU         CLOUDY    65  62  89 E6        30.05F
$$

LSZ147-162-292100-
LAKE SUPERIOR

STATION/POSITION TIME  TEMP    WIND        PRES    WAVE
                       AIR SEA DIR/SP/G            HT/PER
                 (UTC) (F)     (DEG/KT/KT) (MB)    (FT/S)
W MID LAKE BUOY  1950   59 54  220/ 10/ 12 1015.8F   2/ 5
DEVILS ISLAND    2000   64     220/ 10/ 12 1016.0F
PORT WING        1940   69     240/  4/  6 1016.6F
SAXON HARBOR     1900   69      70/  3/  6 1016.3F
$$

LMZ867-665-643>646-292100-
LAKE MICHIGAN

STATION/POSITION TIME  TEMP    WIND        PRES    WAVE
                       AIR SEA DIR/SP/G            HT/PER
                 (UTC) (F)     (DEG/KT/KT) (MB)    (FT/S)
CHAMBERS ISLAND  1900   66     240/  4/  6 1017.9F
N MID LAKE BUOY  1950   64 65  220/  6/  6 1017.6F   1
NORTHPORT PIER   1900   66     150/  7/ 12 1017.9F
SISTER BAY       1904   72        CALM       N/A
ALGOMA LAKESHORE 1814             CALM       N/A
SHEBOYGAN LAKESH 2000   60     120/  6/  6 1017.9F
PORT WASHINGTON  1940   60      60/  2/  3 1018.3F
ATWATER BUOY     2000   51 48  340/  6/  6 1018.7F
MILWAUKEE LAKESH 1900   58      20/  6/  7   N/A
S MID LAKE BUOY  1950   67 68  110/ 12/ 14 1016.6S   2/ 4
KENOSHA   LAKESH 2000   62     350/  1/  3 1016.6S
$$

TC  - TEMPERATURE IN CELSIUS
VSB - VISIBILITY IN STATUTE MILES
WCI - WIND CHILL INDEX
HX  - HEAT INDEX




USA.gov is the U.S. government's official web portal to all federal, state and local government web resources and services.